GAOFEN 9-01

Last updated on Tue Nov 21 2023 00:02:24 GMT+0000 (Coordinated Universal Time)

1 40894U 15047A 23324.54431988 .00000523 00000+0 77835-4 0 9991 2 40894 97.7600 21.8664 0027087 324.7809 35.1612 14.78728522441104
UTC large
Height (km)
Speed (km/s)
/
Latitude / Longitude
Inclination (degrees)
Orbital Period (minutes)
Azimuth
Elevation
Range (km)
Doppler Factor

Next 0 passes for location: London (51.5072 / 0.1276)

Sorry there are no passes over London.